Location: Shenandoah County Park
(38.9356°N, 78.4524°W)
Time: 11:02:11
(UTC-05:00)

deb Explorer IX - Visible Passes

Search period start: 02 December 2023 00:00
Search period end: 12 December 2023 00:00
Orbit: 523 x 935 km, 38.8° (Epoch: 02 December)

Date Brightness Start Highest point End Pass type
(mag) Time Alt. Az. Time Alt. Az. Time Alt. Az.
02 Dec ? 03:34:02 11° SE 03:34:02 11° SE 03:34:10 10° SE visible
02 Dec ? 05:13:25 14° SSW 05:13:25 14° SSW 05:16:07 10° S visible
03 Dec ? 04:24:36 12° S 04:24:36 12° S 04:25:21 10° S visible
07 Dec ? 18:44:04 10° S 18:45:25 14° SSE 18:45:25 14° SSE visible
08 Dec ? 19:33:51 10° SW 19:34:43 15° SW 19:34:43 15° SW visible
09 Dec ? 18:41:14 10° SSW 18:44:30 27° SSE 18:44:30 27° SSE visible
10 Dec ? 17:48:38 10° SSW 17:51:35 19° SSE 17:54:04 12° ESE visible
10 Dec ? 19:31:46 10° WSW 19:33:19 22° WSW 19:33:19 22° WSW visible
11 Dec ? 18:38:28 10° SW 18:42:21 47° SSE 18:42:40 46° SE visible
